Volver al catálogo

STARLINK-3901

ActivoComunicacionesVLEO
NORAD 52574·PAYLOAD·🇺🇸 United States

Lanzado May 13, 2022 desde Vandenberg Space Force Base

Loading…

Próximos Pases (próximas 24 horas)

TLE

ActualizadoSource: CelesTrak SupGP

Época: Sep 14, 2026, 21:52 UTC

1 52574C 22051AQ  26257.91159722  .00000720  00000+0  74705-5 0  2574
2 52574  53.1584 329.5124 0001600  64.2489  12.3828 15.63992427    10

Sigue STARLINK-3901 en tiempo real con AllMySat

Download on the App Store